Temperature
9 10 10 11 10 11 11 11 10 11 10 9 10 10 10 8 8 8 7 6 6 5 5 5 6 6 6 6 7 7 7 7 7 7 7 7 7 8 8 8 8 8 8 8
9 10 10 9 9 9 9 10 10 9 9 9 9 9 9 8 8 7 7 6 6 5 5 5 5 5 6 6 6 6 6 7 7 7 7 7 7 7 7 7 7 7 7 8
9 9 9 8 8 8 9 10 9 9 8 8 8 9 10 8 7 6 6 6 5 5 4 4 5 5 5 5 5 5 6 6 6 6 6 6 6 6 7 7 7 7 7 7
8 8 8 8 8 8 9 9 8 8 8 9 9 10 10 9 8 7 6 5 5 4 4 4 4 4 4 5 5 5 5 5 5 6 6 6 6 6 6 6 6 6 6 6
8 7 8 8 8 8 8 8 7 8 8 8 8 8 10 8 8 8 7 5 4 4 4 3 4 4 4 4 4 5 5 5 5 5 5 5 5 5 5 5 5 5 5 6
7 7 7 7 7 7 7 7 7 7 7 7 8 9 10 9 8 8 7 5 4 3 3 3 3 4 4 4 4 4 4 4 4 4 5 5 5 5 5 5 5 5 5 5
7 7 6 6 7 7 7 8 8 8 8 9 7 8 9 8 7 7 6 5 4 3 3 3 3 3 3 3 4 4 4 4 4 4 4 4 4 4 4 4 4 4 4 4
7 8 6 6 7 7 7 8 8 9 9 9 7 8 9 7 6 5 4 4 3 3 3 3 3 3 3 3 3 3 3 3 3 3 3 4 4 4 4 4 4 4 4 4
7 7 6 5 6 7 6 7 7 7 6 7 8 8 7 6 5 5 4 4 3 3 2 2 2 2 2 3 2 2 2 3 3 3 3 3 3 3 3 3 3 3 3 3
6 6 6 5 5 5 6 6 6 7 7 8 9 8 9 7 6 5 4 4 3 2 2 2 2 2 2 2 2 2 2 2 2 2 2 2 2 2 2 2 2 2 2 2
5 5 5 5 5 6 5 5 6 6 7 8 9 9 8 7 6 5 5 3 3 2 1 1 1 1 2 2 2 2 2 2 2 2 2 2 2 2 2 2 2 2 2 2
4 5 5 5 4 4 5 6 6 6 6 6 8 8 5 5 5 4 4 3 2 1 1 1 1 1 1 1 1 1 1 1 1 1 1 1 1 1 1 1 1 1 1 2
3 3 5 5 4 3 4 4 4 5 5 6 7 8 5 4 4 3 3 2 1 1 0 0 0 0 0 1 1 1 1 1 1 1 1 1 1 1 1 1 1 1 1 1
3 2 4 6 6 4 3 3 3 4 5 6 6 6 5 5 4 3 2 1 1 0 0 0 -0 -0 0 0 1 1 1 0 0 0 0 0 0 0 0 0 0 0 0 0
2 2 2 3 3 3 3 3 3 3 4 5 6 5 5 4 3 2 1 1 0 -0 -0 -0 -1 -1 -0 -0 0 0 0 0 0 0 -0 -0 -0 -0 -0 -0 -0 -0 -0 -0
1 2 1 2 3 2 2 2 3 3 3 3 4 4 4 3 2 1 1 -0 -0 -1 -1 -1 -1 -1 -1 -0 -0 -0 -0 -0 -0 -0 -0 -0 -1 -1 -1 -1 -1 -0 -0 -1
1 1 2 3 2 1 3 2 2 2 2 3 3 4 2 2 1 1 -0 -1 -1 -1 -1 -1 -1 -1 -1 -1 -1 -1 -1 -1 -1 -1 -1 -1 -1 -1 -1 -1 -1 -1 -1 -1
-0 0 1 2 2 3 3 1 1 1 1 1 1 1 1 1 -0 -1 -1 -1 -1 -1 -1 -1 -1 -1 -1 -1 -1 -1 -1 -1 -1 -1 -1 -1 -1 -1 -1 -1 -1 -1 -1 -1
-0 0 1 2 3 3 3 1 0 1 1 1 0 0 -0 -1 -1 -0 -1 -1 -1 -1 -1 -1 -1 -1 -1 -1 -1 -1 -2 -2 -2 -2 -2 -2 -2 -1 -2 -2 -2 -2 -2 -2
-1 -1 1 1 3 3 3 0 -1 0 2 0 -1 -1 -1 -1 1 1 -1 -1 -1 -2 -2 -2 -2 -2 -2 -2 -2 -2 -2 -2 -2 -2 -2 -2 -2 -2 -2 -2 -2 -2 -2 -2
-1 -0 0 1 2 3 1 -1 -1 2 2 -1 -2 -2 -2 -1 -1 -1 -2 -2 -2 -2 -2 -2 -2 -2 -2 -2 -2 -2 -2 -3 -3 -3 -3 -3 -3 -3 -3 -2 -2 -2 -2 -2
-0 0 -0 1 2 2 -1 -1 0 0 -2 -2 -2 -3 -3 -3 -3 -3 -2 -2 -2 -2 -2 -2 -3 -3 -3 -3 -3 -3 -3 -3 -3 -3 -3 -3 -3 -3 -3 -3 -3 -3 -3 -3
-1 -0 0 0 1 -1 -2 -2 -2 -2 -2 -3 -3 -3 -3 -3 -3 -3 -3 -3 -3 -3 -3 -3 -3 -3 -3 -3 -3 -3 -3 -3 -3 -3 -3 -3 -3 -3 -3 -3 -3 -3 -3 -4
-1 -3 -2 -2 -1 -2 -2 -2 -2 -3 -3 -3 -3 -3 -3 -4 -4 -4 -3 -3 -3 -3 -3 -3 -3 -3 -4 -4 -4 -4 -4 -4 -4 -4 -4 -4 -4 -4 -4 -4 -4 -4 -4 -4
-2 -3 -2 -2 -2 -2 -3 -3 -3 -3 -3 -3 -3 -3 -3 -4 -4 -4 -4 -4 -4 -4 -4 -4 -4 -4 -4 -4 -4 -4 -4 -4 -4 -4 -4 -4 -4 -4 -4 -4 -4 -4 -5 -5
-3 -3 -2 -1 -2 -2 -2 -3 -3 -3 -3 -3 -3 -3 -3 -4 -4 -4 -4 -4 -4 -4 -4 -4 -4 -4 -4 -4 -4 -4 -4 -4 -4 -4 -4 -4 -4 -4 -5 -5 -5 -5 -5 -5
Wind_Speed
3 4 7 8 9 6 6 7 8 7 3 5 8 9 8 6 5 6 5 5 4 3 2 1 1 2 2 3 3 2 2 2 1 1 0 0 0 1 1 1 2 2 1 1
4 7 7 4 6 6 7 8 8 5 2 4 6 10 8 7 6 6 6 5 4 3 1 1 2 2 2 3 3 3 3 2 1 1 0 1 1 1 1 1 2 2 2 1
7 2 3 5 5 7 9 10 9 6 3 4 4 8 7 4 3 3 4 4 3 3 2 1 1 2 2 3 3 2 3 2 2 1 0 0 1 1 1 1 1 3 2 1
5 3 4 6 7 7 8 6 7 6 5 4 4 6 6 4 4 3 3 2 2 1 1 1 1 2 2 2 2 2 2 2 2 1 1 1 1 1 1 1 1 2 2 1
4 3 5 6 6 7 4 2 4 5 6 5 5 6 5 4 5 4 3 2 1 1 1 0 1 1 2 2 2 2 2 2 2 1 1 2 2 2 1 1 2 2 1 1
4 2 3 4 3 5 4 4 3 2 4 6 7 7 6 4 5 4 3 2 1 0 0 0 1 2 2 2 2 2 2 2 2 2 2 2 2 2 2 2 2 2 2 2
3 3 1 2 3 4 5 4 2 4 5 5 4 6 6 2 3 4 3 2 0 0 0 1 1 2 2 2 2 2 2 2 2 2 2 2 3 3 3 3 3 3 3 3
3 4 3 3 4 4 7 6 4 4 4 3 4 6 3 0 1 2 2 1 0 1 1 2 2 2 3 3 3 3 3 3 3 3 3 3 3 2 2 3 3 4 3 4
3 3 1 1 2 4 5 6 3 2 1 3 5 4 4 2 2 2 2 1 1 2 2 3 3 3 3 3 3 3 3 4 3 3 3 3 3 3 3 3 3 3 3 3
2 3 2 1 2 1 2 4 3 4 4 5 5 6 4 4 5 4 3 2 2 2 3 4 3 4 4 3 3 3 4 4 4 3 3 3 4 4 4 3 4 4 4 4
2 3 2 2 5 5 5 5 4 4 3 4 4 3 1 4 5 5 4 3 3 3 4 4 4 4 4 3 3 3 3 3 3 3 3 3 4 4 4 4 4 4 4 4
2 2 3 4 1 2 4 5 6 4 4 4 4 4 1 2 3 3 4 4 3 3 3 3 4 4 4 3 3 3 3 3 3 3 3 3 4 4 4 4 4 4 5 5
3 3 2 2 3 2 3 4 5 3 2 5 6 5 1 1 2 4 4 5 4 4 4 4 4 4 4 4 4 3 3 3 3 2 2 3 3 3 3 4 4 4 4 4
2 3 6 7 4 2 4 5 6 6 5 7 9 10 7 6 6 5 5 5 4 4 4 4 4 4 4 4 4 3 3 2 2 2 2 2 3 3 3 3 3 3 3 3
2 3 4 7 6 4 6 7 8 10 10 9 10 11 11 9 7 6 5 5 4 5 5 5 5 4 4 4 4 3 3 3 2 2 2 2 3 2 2 2 3 3 3 3
1 3 3 5 5 5 7 9 10 11 12 12 12 13 9 7 6 5 5 5 5 5 5 5 5 4 4 4 4 4 3 3 3 2 2 2 2 2 2 2 2 2 2 2
3 3 3 5 4 3 7 8 9 8 8 8 11 10 7 6 7 7 6 5 6 6 6 5 5 5 5 4 4 4 4 3 3 2 2 2 2 2 2 2 2 2 2 2
4 3 2 3 2 6 2 1 4 7 7 8 8 8 7 7 7 7 6 5 6 6 6 6 5 5 4 4 4 3 3 3 2 2 2 2 2 2 1 1 2 2 2 2
4 4 3 2 4 7 4 2 2 5 5 5 8 7 6 5 5 4 3 4 5 6 6 5 5 4 4 4 3 2 2 2 2 2 3 3 2 2 1 1 2 2 2 2
1 3 3 3 5 5 2 1 0 3 5 2 4 6 5 4 5 5 4 6 6 5 4 4 4 3 3 3 2 2 2 2 3 3 3 3 2 2 2 2 2 2 2 2
1 2 4 5 6 5 2 0 2 3 3 2 3 5 5 5 6 6 7 6 5 4 4 3 3 2 2 2 1 1 2 3 3 3 3 2 2 2 2 2 2 2 2 2
4 3 4 4 5 5 1 2 3 3 4 3 4 4 5 6 6 5 5 5 4 4 3 2 2 2 2 1 1 2 2 3 3 3 3 3 3 2 2 2 2 2 2 2
5 4 3 5 4 2 2 2 2 3 4 4 4 5 5 5 5 5 5 4 3 3 3 2 2 2 2 1 2 2 3 2 2 2 3 3 3 2 2 2 2 2 2 2
4 3 3 5 6 5 5 4 4 4 5 6 5 4 4 5 5 4 4 3 3 2 2 2 1 1 2 2 2 2 2 2 2 2 2 2 2 2 2 2 2 2 2 2
3 3 4 6 6 6 5 5 5 6 6 6 5 4 4 4 4 4 3 3 2 2 2 2 2 2 2 2 2 3 2 2 1 2 2 2 2 2 2 2 2 2 2 2
5 5 5 5 4 4 6 6 6 6 6 5 5 5 3 3 4 3 3 3 2 2 2 2 2 2 2 2 2 3 2 1 1 1 1 2 2 2 2 2 2 3 3 4
Wind_Direction
178 206 217 216 220 248 232 230 249 252 227 231 244 255 261 259 250 245 240 237 235 237 243 295 335 357 8 14 13 10 1 7 18 22 333 208 255 298 324 11 20 8 10 16
190 228 236 224 213 221 222 232 251 267 199 231 258 267 266 251 242 241 236 229 229 237 260 326 351 3 3 3 2 1 355 355 350 330 289 255 254 257 284 7 13 1 360 7
215 242 201 195 201 222 231 233 246 263 268 225 261 262 236 223 226 232 230 225 228 234 250 297 341 348 347 350 349 347 344 341 337 324 302 137 201 250 300 328 330 346 341 324
232 245 202 209 222 227 246 233 232 243 239 240 228 264 241 216 222 216 213 215 236 242 249 278 331 342 339 335 337 343 346 345 343 323 233 203 214 241 269 286 289 308 323 297
227 225 210 221 230 220 237 177 198 228 232 249 225 245 252 196 228 227 220 223 238 239 226 277 330 325 320 335 338 342 355 353 343 322 268 222 227 243 261 266 273 277 294 307
255 245 239 238 227 199 164 137 142 193 216 238 224 226 256 215 224 217 220 224 222 231 245 318 348 333 327 338 343 346 347 340 333 317 291 253 233 236 242 251 255 260 265 269
243 216 201 205 179 172 184 181 214 212 215 234 184 222 252 245 228 213 213 219 240 297 308 317 336 330 323 324 327 323 316 314 315 307 297 283 268 253 242 245 246 253 254 255
234 230 190 192 207 200 198 206 224 242 238 239 194 229 246 311 238 210 200 219 281 297 326 318 314 313 305 299 301 298 291 292 297 294 294 288 284 274 262 257 252 250 252 251
231 234 147 199 247 202 193 209 236 250 253 253 231 236 250 226 205 196 201 235 288 298 313 319 320 312 306 293 285 280 277 279 284 283 281 279 274 267 267 266 263 260 260 255
228 251 241 221 189 216 236 171 176 206 227 246 238 234 226 204 211 208 220 242 270 299 308 314 315 310 311 294 282 278 268 267 276 276 273 275 272 267 265 266 263 260 262 260
231 225 227 200 210 205 178 190 207 208 241 248 253 236 200 228 217 215 230 252 273 290 297 302 309 312 311 299 285 279 274 273 275 275 274 277 275 271 266 264 264 264 262 258
210 222 244 238 243 291 223 215 204 221 224 225 255 267 58 239 220 237 258 272 281 288 294 298 306 312 309 303 296 286 278 278 282 282 280 282 282 275 267 265 265 265 261 257
173 187 234 217 196 192 218 219 219 224 238 226 236 256 110 221 259 270 274 282 283 287 297 303 310 313 312 309 303 291 283 284 286 282 284 290 291 284 279 278 271 265 261 259
180 205 231 251 274 199 223 224 213 207 228 238 239 258 271 277 281 283 279 278 285 291 294 302 309 312 313 310 305 300 298 298 298 301 301 294 294 288 282 282 278 271 262 255
184 226 234 258 266 250 246 243 223 218 231 242 256 262 274 277 280 279 276 276 282 287 294 299 301 306 311 311 309 304 309 311 307 303 305 300 300 297 293 289 288 289 276 263
183 219 232 259 251 251 263 258 243 240 242 246 259 269 282 285 284 280 275 270 275 282 290 294 295 300 305 306 302 300 302 304 300 292 294 301 300 297 295 297 297 299 296 282
194 198 234 260 274 262 261 251 235 233 234 234 247 262 286 287 282 277 278 273 278 284 290 289 289 292 296 300 297 293 297 299 294 296 306 308 305 302 303 312 316 320 315 304
195 202 224 259 249 247 270 76 230 233 246 239 252 272 280 284 288 282 273 267 279 291 292 290 288 295 299 303 301 302 304 306 309 319 319 321 326 337 346 342 340 334 324 316
218 200 204 220 249 268 275 256 224 228 255 243 252 273 299 310 291 278 270 275 283 286 284 283 282 288 294 298 296 297 302 316 331 326 318 322 326 332 337 335 329 321 322 324
189 193 203 218 243 255 300 6 261 211 256 252 248 267 289 297 282 296 315 304 299 291 285 287 288 291 294 301 293 286 307 322 326 322 317 322 326 325 319 314 311 320 323 327
194 204 217 229 242 262 312 1 170 227 297 341 270 271 265 268 283 301 307 306 303 295 296 297 293 297 299 300 283 289 316 317 321 326 335 334 332 329 319 317 323 332 340 342
215 206 211 212 229 255 102 146 211 284 319 291 284 279 275 287 295 295 299 305 306 308 311 308 304 315 322 314 286 296 311 319 326 338 350 345 343 344 344 338 337 339 340 339
226 232 233 222 241 304 195 232 275 299 289 295 296 293 286 289 291 294 297 300 299 305 312 312 304 325 337 324 307 306 320 329 337 347 348 347 350 352 353 347 342 341 338 335
244 252 239 258 266 275 268 270 287 295 292 300 301 295 284 284 287 295 294 296 301 304 317 320 316 329 328 327 319 312 315 322 325 332 338 344 346 351 356 356 352 350 338 328
258 220 241 259 277 293 270 277 292 296 294 294 297 287 277 276 277 280 280 283 287 289 305 300 289 298 309 320 320 318 315 315 322 329 335 340 340 334 346 357 358 347 345 329
236 230 236 258 267 268 287 292 289 285 286 285 290 290 281 260 260 267 268 272 271 274 295 299 298 305 312 318 323 323 318 307 311 327 336 341 340 339 338 338 354 18 359 359
Height
1497 1496 1492 1491 1492 1491 1491 1491 1491 1491 1495 1496 1492 1491 1491 1493 1494 1493 1493 1493 1493 1493 1493 1493 1492 1492 1492 1491 1491 1491 1491 1491 1491 1491 1492 1492 1493 1493 1493 1494 1494 1494 1494 1495
1495 1492 1491 1493 1494 1494 1493 1492 1491 1493 1495 1495 1492 1489 1488 1489 1490 1491 1491 1491 1491 1491 1491 1491 1490 1490 1490 1489 1489 1489 1489 1489 1489 1489 1490 1490 1490 1490 1491 1491 1491 1491 1491 1492
1489 1490 1493 1493 1493 1493 1491 1490 1490 1492 1494 1494 1494 1484 1483 1486 1488 1489 1489 1489 1489 1489 1489 1489 1489 1488 1488 1488 1487 1487 1487 1487 1487 1488 1488 1488 1488 1488 1488 1488 1488 1488 1488 1489
1491 1492 1492 1491 1491 1492 1488 1489 1492 1493 1492 1486 1490 1479 1475 1481 1484 1486 1487 1487 1487 1488 1488 1488 1487 1487 1486 1486 1485 1485 1485 1485 1485 1485 1485 1485 1485 1485 1485 1485 1485 1486 1486 1486
1489 1491 1490 1489 1489 1491 1489 1492 1493 1493 1490 1489 1487 1486 1471 1479 1480 1481 1484 1486 1486 1486 1486 1486 1486 1486 1485 1484 1484 1483 1483 1483 1483 1483 1483 1482 1482 1482 1482 1482 1482 1483 1483 1482
1490 1491 1491 1489 1490 1491 1492 1493 1494 1493 1490 1489 1482 1481 1468 1472 1475 1478 1482 1484 1485 1485 1485 1484 1484 1484 1484 1483 1482 1482 1481 1481 1481 1480 1480 1480 1479 1479 1479 1479 1479 1479 1479 1479
1488 1489 1490 1490 1489 1491 1491 1489 1488 1485 1484 1476 1483 1481 1471 1473 1476 1478 1480 1482 1483 1483 1483 1483 1482 1482 1481 1481 1480 1480 1479 1478 1478 1477 1477 1477 1476 1476 1476 1476 1476 1475 1476 1476
1484 1482 1487 1489 1487 1487 1487 1486 1483 1477 1471 1470 1482 1476 1470 1476 1477 1479 1480 1481 1481 1482 1482 1481 1480 1480 1479 1479 1478 1477 1476 1476 1475 1474 1474 1474 1473 1473 1472 1472 1472 1472 1472 1472
1484 1482 1488 1489 1488 1487 1486 1485 1485 1485 1486 1481 1470 1471 1474 1475 1477 1478 1479 1479 1480 1480 1480 1479 1478 1477 1477 1476 1475 1474 1473 1473 1472 1471 1471 1470 1470 1469 1469 1469 1468 1468 1468 1469
1487 1487 1486 1489 1489 1489 1487 1486 1488 1484 1479 1469 1465 1466 1463 1470 1472 1475 1477 1477 1478 1478 1478 1477 1476 1475 1474 1473 1472 1471 1470 1470 1469 1468 1468 1467 1466 1466 1465 1465 1465 1464 1465 1465
1489 1488 1487 1488 1486 1483 1487 1488 1484 1481 1478 1469 1462 1460 1465 1467 1469 1472 1474 1475 1476 1476 1476 1475 1474 1472 1471 1470 1469 1468 1467 1466 1465 1465 1464 1464 1463 1463 1462 1462 1462 1461 1461 1462
1489 1487 1484 1484 1486 1486 1484 1481 1481 1479 1478 1476 1467 1465 1469 1470 1471 1473 1473 1474 1474 1474 1474 1473 1471 1470 1468 1467 1466 1465 1464 1463 1462 1461 1461 1460 1460 1459 1459 1458 1458 1458 1458 1458
1489 1488 1482 1478 1485 1488 1486 1484 1484 1482 1479 1474 1467 1465 1470 1470 1471 1472 1473 1473 1472 1472 1471 1470 1469 1467 1466 1464 1463 1462 1461 1460 1459 1458 1458 1457 1457 1456 1456 1455 1455 1454 1454 1454
1487 1487 1482 1473 1471 1480 1483 1484 1484 1482 1477 1470 1465 1464 1467 1468 1469 1470 1471 1471 1470 1470 1469 1467 1466 1465 1463 1462 1461 1459 1458 1457 1456 1456 1455 1454 1454 1453 1452 1452 1451 1451 1450 1450
1486 1485 1485 1481 1481 1481 1480 1480 1480 1480 1474 1470 1464 1465 1464 1467 1468 1469 1469 1468 1468 1467 1466 1465 1464 1462 1461 1459 1458 1457 1456 1455 1454 1453 1452 1451 1451 1450 1449 1449 1448 1448 1447 1447
1486 1484 1485 1481 1480 1480 1479 1476 1476 1475 1474 1471 1468 1466 1466 1467 1468 1467 1467 1466 1466 1465 1464 1462 1461 1460 1458 1457 1455 1455 1454 1453 1452 1451 1449 1449 1448 1447 1446 1446 1445 1445 1444 1444
1484 1484 1480 1472 1478 1479 1471 1470 1471 1470 1470 1470 1466 1464 1466 1466 1466 1465 1464 1464 1463 1462 1461 1460 1459 1458 1456 1455 1454 1453 1452 1451 1450 1448 1447 1446 1445 1444 1443 1443 1443 1442 1442 1442
1483 1482 1480 1475 1477 1468 1465 1470 1469 1469 1468 1468 1467 1465 1466 1465 1464 1463 1462 1462 1461 1460 1459 1458 1457 1456 1454 1453 1452 1451 1450 1449 1447 1446 1445 1444 1443 1442 1442 1442 1441 1441 1440 1439
1479 1480 1477 1475 1468 1461 1464 1468 1470 1468 1465 1466 1466 1465 1465 1464 1462 1460 1460 1460 1459 1458 1457 1456 1455 1454 1452 1451 1450 1449 1448 1447 1445 1444 1443 1443 1442 1441 1441 1440 1440 1439 1439 1438
1479 1478 1476 1474 1466 1460 1461 1468 1468 1469 1462 1463 1464 1463 1463 1463 1459 1457 1458 1457 1456 1455 1454 1454 1453 1452 1450 1449 1449 1447 1446 1445 1444 1443 1442 1442 1441 1440 1440 1439 1438 1438 1437 1436
1478 1477 1475 1471 1466 1460 1465 1467 1468 1464 1459 1463 1462 1462 1461 1460 1459 1457 1455 1454 1454 1453 1452 1452 1451 1450 1448 1448 1447 1446 1445 1444 1443 1442 1441 1440 1440 1439 1438 1438 1437 1436 1435 1435
1474 1471 1473 1470 1465 1463 1466 1467 1466 1463 1462 1461 1460 1460 1459 1458 1456 1455 1453 1452 1451 1451 1450 1450 1449 1447 1447 1446 1446 1445 1444 1443 1442 1441 1440 1439 1438 1438 1437 1436 1436 1435 1434 1433
1473 1471 1468 1467 1464 1464 1464 1464 1464 1463 1462 1460 1459 1458 1457 1455 1454 1453 1452 1451 1450 1449 1449 1448 1447 1446 1446 1445 1444 1443 1443 1442 1441 1440 1439 1438 1438 1437 1436 1435 1434 1433 1432 1432
1470 1472 1470 1468 1463 1463 1463 1463 1462 1461 1460 1459 1457 1456 1455 1453 1452 1451 1450 1449 1449 1448 1447 1446 1446 1445 1444 1444 1443 1442 1441 1441 1440 1439 1438 1438 1437 1436 1435 1434 1433 1432 1431 1431
1468 1469 1467 1465 1463 1462 1460 1460 1460 1459 1458 1456 1455 1454 1453 1451 1450 1449 1448 1448 1447 1447 1446 1445 1445 1444 1443 1442 1442 1441 1440 1440 1439 1438 1438 1437 1436 1435 1434 1433 1432 1431 1431 1430
1466 1466 1463 1459 1460 1460 1458 1457 1457 1456 1454 1453 1452 1450 1450 1449 1448 1447 1447 1447 1446 1446 1445 1444 1443 1443 1442 1441 1441 1440 1440 1439 1439 1438 1437 1436 1435 1434 1433 1432 1432 1431 1430 1429